SL-8 R/B, 3048

Orbit data source: Space-Track

SL-8 R/B, 3048 is space debris in LEO originally from a launch on Thu, 23 Nov 1967 UTC launched from the Plesetsk Missile And Space Complex (PKMTR). Debris objects in space refer to the collection of defunct objects orbiting the Earth. Examples of debris include non-operational satellites, rocket bodies, and fragments generated from explosions, collisions, or faulty payload assembly.

Loading next visibility...
Identifier
3048, 1967-116B
Orbit
LEO
Country
Flag of CISCIS
Related business
Manufacturer
Yuzhnoe
Mission
Spacecraft
Bus & Motor
S3, Unknown motor
Mass
1,434 kg wet, 1,434 kg dry
Launch date (UTC)
1967-11-23 (58 years ago)
Launch vehicle
Unknown
Launch site
Plesetsk Missile And Space Complex (PKMTR)
Object type
Payload
Rocket body
Debris
Shape & HBR
Cyl, 2.1 m
Radar Cross Section
10.179 m², Large (>1 m²)

Expand to show TLE details & history
Last TLE update: 17 hours ago

TLE from 17 hours ago
0 SL-8 R/B
1 03048U 67116B   25261.29670307  .00000572  00000-0  11768-3 0  9996
2 03048  74.0092  11.7687 0007256 203.0032 179.5525 14.62986093 66272
Epoch: 2025-09-18T07:07Z
TLE epoch observation values (Epoch: 2025-09-18T07:07:15.145Z)
Latitude
21.65713°
Longitude
-86.00607°
Altitude
691.043 km
Speed
7.51 km/s
True Right ascension
01h 13m 04s
True Declination
21° 32' 18"
Sunlit
Object was in full shadow at epoch
Visualization orbit readout
Latitude
Unknown
Longitude
Unknown
Altitude
Unknown
Speed
Unknown
Apparent Right ascension
Unknown
Apparent Declination
Unknown
Sunlit
N/A
Visualization observer readout
Local Sidereal Time
17:16:57
Azimuth
Unknown
Elevation
Unknown
Doppler factor
Unknown
Orbital elements
Apogee altitude
686.267 km
Perigee altitude
676.023 km
Semi-major axis
7,059.282 km
Eccentricity
0.00073
Inclination
74.0092°
RAAN
11.7687°
Arg. of periapsis
203.0032°
True anomaly
179.55315°
Mean anomaly
179.5525°
Eccentric anomaly
179.55282°
Mean motion
3.65934 °/min
Orbital period
98.38 mins
BSTAR
0.00011768
Loading maneuver chart data...
Computing Atmospheric mass density...
Loading historical data...
Loading historical data...
Loading historical data...
Loading historical data...
Loading historical data...
Loading historical data...
Loading historical data...

Documentation

Showing up to 5 results
|